EW6252 Weather Reports


time (UTC)temp
C
wind
direction
speed
KPH
gust
KPH
rain 1hr
cm
rain 24hr
cm
rain mn
cm
humidity
%
barometer
mb
20260504150956 24 0.0 0.0 0.00 0.00 0.00 37 1013.9
20260504150221 23 0.0 0.0 0.00 0.00 0.00 34 1013.9
20260504141107 21 0.0 0.0 0.00 0.00 0.00 16 1013.9
20260504140605 21 0.0 0.0 0.00 0.00 0.00 16 1013.9
20260504130409 17 0.0 0.0 0.00 0.00 0.00 100 1013.8
20260504110531 15 0.0 0.0 0.00 0.00 0.00 100 1013.4
20260504081723 16 0.0 0.0 0.00 0.00 0.00 100 1014.5
20260504081204 16 0.0 0.0 0.00 0.00 0.00 100 1014.8
20260504080654 16 0.0 0.0 0.00 0.00 0.00 100 1014.8
20260504080133 16 0.0 0.0 0.00 0.00 0.00 100 1014.8
20260504060151 17 0.0 0.0 0.00 0.00 0.00 23 1016.1
20260504050439 17 0.0 0.0 0.00 0.00 0.00 39 1016.7
20260504045933 17 0.0 0.0 0.00 0.00 0.00 41 1016.7
20260504045431 18 0.0 0.0 0.00 0.00 0.00 42 1016.8
20260504045151 18 0.0 0.0 0.00 0.00 0.00 43 1016.8
20260504044348 18 0.0 0.0 0.00 0.00 0.00 43 1016.8
20260504043831 18 0.0 0.0 0.00 0.00 0.00 44 1016.8
20260504043550 18 0.0 0.0 0.00 0.00 0.00 44 1016.8
20260504042821 18 0.0 0.0 0.00 0.00 0.00 46 1016.9
20260504042258 18 0.0 0.0 0.00 0.00 0.00 47 1016.9
20260504041738 18 0.0 0.0 0.00 0.00 0.00 48 1016.9
20260504041239 18 0.0 0.0 0.00 0.00 0.00 48 1016.9
20260504040727 18 0.0 0.0 0.00 0.00 0.00 49 1016.9
20260504040221 18 0.0 0.0 0.00 0.00 0.00 50 1016.9
20260504035647 18 0.0 0.0 0.00 0.00 0.00 51 1016.8
20260504035128 18 0.0 0.0 0.00 0.00 0.00 51 1016.8
20260504034619 19 0.0 0.0 0.00 0.00 0.00 52 1016.8
20260504034118 19 0.0 0.0 0.00 0.00 0.00 52 1016.9
20260504033528 19 0.0 0.0 0.00 0.00 0.00 53 1016.9
20260504032943 19 0.0 0.0 0.00 0.00 0.00 54 1016.9
20260504032702 19 0.0 0.0 0.00 0.00 0.00 54 1016.7
20260504031931 19 0.0 0.0 0.00 0.00 0.00 55 1016.7
20260504031408 19 0.0 0.0 0.00 0.00 0.00 55 1016.7
20260504030902 20 0.0 0.0 0.00 0.00 0.00 55 1016.5
20260504030334 20 0.0 0.0 0.00 0.00 0.00 55 1016.5
20260504025819 20 0.0 0.0 0.00 0.00 0.00 56 1016.7
20260504025540 20 0.0 0.0 0.00 0.00 0.00 56 1016.7
20260504024801 20 0.0 0.0 0.00 0.00 0.00 56 1016.7
20260504024504 20 0.0 0.0 0.00 0.00 0.00 56 1016.5
20260504023729 20 0.0 0.0 0.00 0.00 0.00 56 1016.5
20260504023229 20 0.0 0.0 0.00 0.00 0.00 56 1016.5
20260504022726 20 0.0 0.0 0.00 0.00 0.00 57 1016.4
20260504022228 20 0.0 0.0 0.00 0.00 0.00 57 1016.4
20260504021719 21 0.0 0.0 0.00 0.00 0.00 57 1016.4
20260504021216 21 0.0 0.0 0.00 0.00 0.00 57 1016.4
20260504020650 21 0.0 0.0 0.00 0.00 0.00 57 1016.4
20260504020135 21 0.0 0.0 0.00 0.00 0.00 56 1016.4
20260504015627 21 0.0 0.0 0.00 0.00 0.00 56 1016.3
20260504015341 21 0.0 0.0 0.00 0.00 0.00 56 1016.3
20260504014553 21 0.0 0.0 0.00 0.00 0.00 56 1016.3
20260504014049 21 0.0 0.0 0.00 0.00 0.00 56 1016.3
20260504013539 21 0.0 0.0 0.00 0.00 0.00 55 1016.3
20260504013258 22 0.0 0.0 0.00 0.00 0.00 55 1016.3
20260504012512 22 0.0 0.0 0.00 0.00 0.00 55 1016.2
20260504012238 22 0.0 0.0 0.00 0.00 0.00 53 1016.2
20260504011453 22 0.0 0.0 0.00 0.00 0.00 53 1016.2
20260504010927 22 0.0 0.0 0.00 0.00 0.00 53 1016.2
20260504010430 23 0.0 0.0 0.00 0.00 0.00 52 1016.2
20260504005919 23 0.0 0.0 0.00 0.00 0.00 52 1016.2
20260504005353 23 0.0 0.0 0.00 0.00 0.00 51 1016.1
20260504004845 23 0.0 0.0 0.00 0.00 0.00 51 1016.1
20260504004602 23 0.0 0.0 0.00 0.00 0.00 50 1016.3
20260504003823 23 0.0 0.0 0.00 0.00 0.00 49 1016.3
20260504003323 24 0.0 0.0 0.00 0.00 0.00 48 1016.3
20260504002746 24 0.0 0.0 0.00 0.00 0.00 48 1016.1
20260504002245 24 0.0 0.0 0.00 0.00 0.00 47 1016.1
20260504001732 24 0.0 0.0 0.00 0.00 0.00 46 1016.1
20260504001231 25 0.0 0.0 0.00 0.00 0.00 46 1015.9
20260504000726 25 0.0 0.0 0.00 0.00 0.00 45 1015.9
20260504000159 25 0.0 0.0 0.00 0.00 0.00 45 1015.9
20260503235650 25 0.0 0.0 0.00 0.00 0.00 44 1016.1
20260503235142 25 0.0 0.0 0.00 0.00 0.00 43 1016.1
20260503234910 25 0.0 0.0 0.00 0.00 0.00 43 1016.1
20260503234133 25 0.0 0.0 0.00 0.00 0.00 42 1016.3
20260503233120 26 0.0 0.0 0.00 0.00 0.00 42 1016.3
20260503232606 26 0.0 0.0 0.00 0.00 0.00 43 1016.4
20260503232027 26 0.0 0.0 0.00 0.00 0.00 42 1016.4
20260503231514 26 0.0 0.0 0.00 0.00 0.00 41 1016.4
20260503230957 26 0.0 0.0 0.00 0.00 0.00 42 1016.4
20260503230424 26 0.0 0.0 0.00 0.00 0.00 42 1016.4
20260503225909 26 0.0 0.0 0.00 0.00 0.00 42 1016.4
20260503225346 26 0.0 0.0 0.00 0.00 0.00 42 1016.4
20260503224843 26 0.0 0.0 0.00 0.00 0.00 41 1016.4
20260503224344 26 0.0 0.0 0.00 0.00 0.00 41 1016.4
20260503223842 27 0.0 0.0 0.00 0.00 0.00 40 1016.7
20260503223335 27 0.0 0.0 0.00 0.00 0.00 39 1016.7
20260503222829 27 0.0 0.0 0.00 0.00 0.00 38 1016.7
20260503222600 27 0.0 0.0 0.00 0.00 0.00 37 1016.9
20260503221826 27 0.0 0.0 0.00 0.00 0.00 39 1016.9
20260503221323 27 0.0 0.0 0.00 0.00 0.00 39 1016.9
20260503220815 27 0.0 0.0 0.00 0.00 0.00 39 1016.9
20260503220311 27 0.0 0.0 0.00 0.00 0.00 39 1016.9
20260503215740 27 0.0 0.0 0.00 0.00 0.00 38 1017.0
20260503215231 27 0.0 0.0 0.00 0.00 0.00 37 1017.0
20260503215000 27 0.0 0.0 0.00 0.00 0.00 39 1017.0
20260503214225 26 0.0 0.0 0.00 0.00 0.00 37 1017.4
20260503213223 27 0.0 0.0 0.00 0.00 0.00 36 1017.4
20260503212711 27 0.0 0.0 0.00 0.00 0.00 37 1017.5
20260503212429 27 0.0 0.0 0.00 0.00 0.00 34 1017.5
20260503211659 27 0.0 0.0 0.00 0.00 0.00 34 1017.5
20260503211420 27 0.0 0.0 0.00 0.00 0.00 36 1017.8
20260503210626 27 0.0 0.0 0.00 0.00 0.00 34 1017.8
20260503210125 27 0.0 0.0 0.00 0.00 0.00 34 1017.8
20260503205626 27 0.0 0.0 0.00 0.00 0.00 34 1018.0
20260503205100 27 0.0 0.0 0.00 0.00 0.00 33 1018.0
20260503204600 27 0.0 0.0 0.00 0.00 0.00 36 1018.0
20260503204040 27 0.0 0.0 0.00 0.00 0.00 34 1018.2
20260503203530 27 0.0 0.0 0.00 0.00 0.00 36 1018.2
20260503203028 27 0.0 0.0 0.00 0.00 0.00 37 1018.2
20260503202457 27 0.0 0.0 0.00 0.00 0.00 36 1018.5
20260503201952 27 0.0 0.0 0.00 0.00 0.00 37 1018.5
20260503201427 27 0.0 0.0 0.00 0.00 0.00 38 1018.5
20260503200923 27 0.0 0.0 0.00 0.00 0.00 37 1018.8
20260503200654 27 0.0 0.0 0.00 0.00 0.00 39 1018.8
20260503195904 26 0.0 0.0 0.00 0.00 0.00 37 1018.8
20260503195344 26 0.0 0.0 0.00 0.00 0.00 36 1018.9
20260503194831 27 0.0 0.0 0.00 0.00 0.00 35 1018.9
20260503194330 27 0.0 0.0 0.00 0.00 0.00 37 1019.0
20260503193828 27 0.0 0.0 0.00 0.00 0.00 37 1019.0
20260503193326 26 0.0 0.0 0.00 0.00 0.00 39 1019.0
20260503192825 26 0.0 0.0 0.00 0.00 0.00 39 1019.2
20260503192312 26 0.0 0.0 0.00 0.00 0.00 42 1019.2
20260503191811 26 0.0 0.0 0.00 0.00 0.00 40 1019.2
20260503191311 26 0.0 0.0 0.00 0.00 0.00 38 1019.5
20260503190805 26 0.0 0.0 0.00 0.00 0.00 40 1019.5
20260503190257 26 0.0 0.0 0.00 0.00 0.00 40 1019.5
20260503185747 26 0.0 0.0 0.00 0.00 0.00 38 1019.7
20260503185241 26 0.0 0.0 0.00 0.00 0.00 40 1019.7
20260503184731 26 0.0 0.0 0.00 0.00 0.00 40 1019.7
20260503184214 26 0.0 0.0 0.00 0.00 0.00 39 1020.0
20260503183638 26 0.0 0.0 0.00 0.00 0.00 39 1020.0
20260503183124 26 0.0 0.0 0.00 0.00 0.00 37 1020.0
20260503182553 26 0.0 0.0 0.00 0.00 0.00 37 1020.3
20260503181523 26 0.0 0.0 0.00 0.00 0.00 39 1020.3
20260503181024 26 0.0 0.0 0.00 0.00 0.00 38 1020.5
20260503180741 26 0.0 0.0 0.00 0.00 0.00 39 1020.5
20260503175956 26 0.0 0.0 0.00 0.00 0.00 38 1020.5
20260503175702 26 0.0 0.0 0.00 0.00 0.00 38 1020.6
20260503174929 26 0.0 0.0 0.00 0.00 0.00 40 1020.6
20260503174429 26 0.0 0.0 0.00 0.00 0.00 39 1020.6
20260503173927 26 0.0 0.0 0.00 0.00 0.00 38 1021.1
20260503173416 26 0.0 0.0 0.00 0.00 0.00 38 1021.1
20260503172556 26 0.0 0.0 0.00 0.00 0.00 40 1021.1
20260503172030 26 0.0 0.0 0.00 0.00 0.00 38 1021.1
20260503171525 26 0.0 0.0 0.00 0.00 0.00 40 1021.1
20260503171024 26 0.0 0.0 0.00 0.00 0.00 41 1021.1
20260503170516 26 0.0 0.0 0.00 0.00 0.00 39 1021.1
20260503170246 25 0.0 0.0 0.00 0.00 0.00 43 1021.1